Powrót do katalogu

COSMOS 981

AktywnyMilitariaLEO
NORAD 10588·PAYLOAD·🇷🇺 Russia

Wystrzelony Jan 10, 1978 z Plesetsk Cosmodrome

Loading…

Następne Przeloty (najbliższe 24 godziny)

TLE

ŚwieżeSource: Space-Track

Epoka: Sep 14, 2026, 06:20 UTC

1 10588U 78005F   26257.26421906 -.00000008  00000-0  55011-4 0  9999
2 10588  74.0348   8.2811 0020427   1.9755  21.7416 12.46468123211486

Śledź COSMOS 981 w czasie rzeczywistym z AllMySat

Download on the App Store